Location: *
(37.5724°S, 58.0067°E)
Time: 10:39:29
(UTC+00:00)

CZ-3A R/B - Pass Details

Date: 20 January 2021
Orbit: 1317 x 30229 km, 55.5° (Epoch: 26 February)

Event Time Altitude Azimuth Distance (km) Brightness Sun altitude
Rises 16:25:31 0° 9° (N) 34,805 10.5 -10.5°
Reaches altitude 10° 17:36:30 10° 7° (N) 28,728 10.0 -20.9°
Maximum altitude 19:30:25 48° 54° (NE) 6,879 6.9 -31.4°
Drops below altitude 10° 19:46:40 10° 123° (ESE) 5,415 7.1 -32.0°
Sets 19:49:12 0° 129° (SE) 5,843 7.4 -32.1°
